Ireland West Airport Knock, Ireland

9:39 AM IST on September 25, 2017 (GMT +0100)
Connaught

Weather History for EIKN - November, 2012

Change the Weather History Date:

Tuesday, November 6, 2012

  Actual Average Record
Temperature  
Mean Temperature 44 °F -  
Max Temperature 49 °F - - ()
Min Temperature 39 °F - - ()
Degree Days  
Heating Degree Days 20    
Moisture  
Dew Point 43 °F    
Average Humidity 85    
Maximum Humidity 94    
Minimum Humidity 74    
Precipitation  
Precipitation 0.00 in - - ()
Sea Level Pressure  
Sea Level Pressure 30.20 in    
Wind  
Wind Speed 10 mph ()    
Max Wind Speed 21 mph    
Max Gust Speed -    
Visibility 7.5 miles    
Events      
T = Trace of Precipitation, MM = Missing Value Source: Averaged Metar Reports

Daily Weather History Graph

Daily Weather History Graph

Search for Another Location

Airport or City:

Trip Planner

Search our weather history database for the weather conditions in past years. The results will help you decide how hot, cold, wet, or windy it might be!

Date:

Astronomy

Nov. 06, 2012 Rise Set
Actual Time 7:45 AM GMT 4:51 PM GMT
Civil Twilight 7:07 AM GMT 5:29 PM GMT
Nautical Twilight 6:25 AM GMT 6:11 PM GMT
Astronomical Twilight 5:44 AM GMT 6:52 PM GMT
Moon 11:25 PM GMT (11/6) 1:25 PM GMT (11/6)
Length of Visible Light 10h 21m
Length of Day
9h 05m
Waning Gibbous, 55% of the Moon is Illuminated
Nov 6
Waning Gibbous
Nov 7
Last Quarter
Nov 13
New
Nov 20
First Quarter
Nov 28
Full

Hourly Weather History & Observations

Time (GMT) Temp. Windchill Dew Point Humidity Pressure Visibility Wind Dir Wind Speed Gust Speed Precip Events Conditions
12:00 AM 40 °F - 39 °F 94% 30.17 in - WSW 4.5 mph - -  
6:00 AM 45 °F - 43 °F 90% 30.17 in 16 mi West 11.2 mph - -   Partly Cloudy
8:00 AM 44.6 °F 39.7 °F 42.8 °F 93% 30.15 in 6.2 mi West 9.2 mph - N/A   Mostly Cloudy
8:30 AM 44.6 °F 40.7 °F 42.8 °F 93% 30.18 in 6.2 mi West 6.9 mph - N/A   Mostly Cloudy
9:00 AM 46.4 °F 43.5 °F 42.8 °F 87% 30.18 in 6.2 mi West 5.8 mph - N/A   Mostly Cloudy
9:30 AM 46.4 °F 45.2 °F 42.8 °F 87% 30.18 in 6.2 mi WSW 3.5 mph - N/A   Mostly Cloudy
10:00 AM 46.4 °F 45.2 °F 44.6 °F 93% 30.18 in 6.2 mi WSW 3.5 mph - N/A   Mostly Cloudy
10:30 AM 48.2 °F - 42.8 °F 82% 30.18 in 6.2 mi WNW 13.8 mph - N/A   Mostly Cloudy
11:00 AM 48.2 °F - 42.8 °F 82% 30.21 in 6.2 mi WNW 18.4 mph - N/A   Mostly Cloudy
11:30 AM 48.2 °F - 44.6 °F 87% 30.21 in 6.2 mi WNW 18.4 mph - N/A   Mostly Cloudy
12:00 PM 49 °F - 43 °F 74% 30.24 in 16 mi WNW 20.1 mph - -   Mostly Cloudy
12:00 PM 48.2 °F - 42.8 °F 82% 30.21 in 6.2 mi WNW 20.7 mph - N/A   Scattered Clouds
12:30 PM 48.2 °F - 42.8 °F 82% 30.21 in 6.2 mi WNW 20.7 mph - N/A   Scattered Clouds
1:00 PM 50.0 °F - 42.8 °F 76% 30.21 in 6.2 mi WNW 19.6 mph - N/A   Scattered Clouds
1:30 PM 50.0 °F - 42.8 °F 76% 30.21 in 6.2 mi WNW 18.4 mph - N/A   Partly Cloudy
2:00 PM 50.0 °F - 42.8 °F 76% 30.21 in 6.2 mi WNW 16.1 mph - N/A   Partly Cloudy
2:30 PM 48.2 °F - 42.8 °F 82% 30.21 in 6.2 mi WNW 17.3 mph - N/A   Partly Cloudy
3:00 PM 48.2 °F - 42.8 °F 82% 30.21 in 6.2 mi West 15.0 mph - N/A   Scattered Clouds
3:30 PM 48.2 °F - 42.8 °F 82% 30.21 in 6.2 mi WNW 16.1 mph - N/A   Scattered Clouds
4:00 PM 48.2 °F - 42.8 °F 82% 30.21 in 6.2 mi WNW 13.8 mph - N/A   Scattered Clouds
4:30 PM 46.4 °F 41.1 °F 42.8 °F 87% 30.21 in 6.2 mi West 11.5 mph - N/A   Scattered Clouds
5:00 PM 46.4 °F 42.9 °F 42.8 °F 87% 30.24 in 6.2 mi West 6.9 mph - N/A   Mostly Cloudy
6:00 PM 44 °F - 42 °F 90% 30.27 in 16 mi West 6.7 mph - -   Partly Cloudy